This demonstration page uses our WeatherBlox Daily Observations layout. Learn more.

Left ArrowRight Arrow

Hourly Observations for December 10, 2022

Temp ( °F °C ) Dew Point ( °F °C ) Humidity (%) Winds ( mph kmh ) Pressure ( in mb ) Visibility ( mi km ) Precip ( " mm )
12:02 am 00:02 Cloudy with Light Snow 21 -6 19 -7 93 93 SSE 7 11 30.20 1023 1 1 0.01 0.13
12:13 am 00:13 Cloudy with Freezing Fog 25 -4 21 -6 86 86 S 6 9 30.19 1022 0 0 0.01 0.13
12:56 am 00:56 Cloudy with Light Snow 24 -4.4 23 -5 96 96 S 6 9 30.11 1020 0 0 0.01 0.13
1:56 am 01:56 Cloudy with Freezing Fog 25 -3.9 23 -5 92 92 S 7 11 30.11 1020 0 0 0.01 0.13
2:07 am 02:07 Cloudy with Freezing Fog 25 -4 23 -5 93 93 S 6 9 30.19 1022 1 1 0.01 0.13
2:45 am 02:45 Cloudy with Freezing Fog 25 -4 23 -5 93 93 WSW 8 13 30.21 1023 0 0 0.01 0.13
2:56 am 02:56 Cloudy with Freezing Fog 24 -4.4 23 -5 96 96 SW 8 13 30.13 1020 1 1 0.01 0.13
3:19 am 03:19 Cloudy with Light Snow 25 -4 23 -5 93 93 SW 7 11 30.21 1023 1 2 0.01 0.13
3:32 am 03:32 Mostly Cloudy with Light Snow 23 -5 21 -6 93 93 SW 7 11 30.22 1023 3 5 0.01 0.13
3:42 am 03:42 Partly Cloudy with Mist and Fog 23 -5 21 -6 93 93 SSW 7 11 30.22 1023 5 8 0.01 0.13
3:56 am 03:56 Clear 22 -5.6 20 -6.7 92 92 SW 8 13 30.12 1020 10 16 0.01 0.13
4:56 am 04:56 Clear 22 -5.6 20 -6.7 92 92 SW 7 11 30.13 1020 10 16 0.00 0.00
5:56 am 05:56 Clear 21 -6.1 20 -6.7 95 95 WSW 6 9 30.16 1021 10 16 0.00 0.00
6:56 am 06:56 Clear 22 -5.6 20 -6.7 92 92 NW 7 11 30.16 1022 10 16 0.00 0.00
7:56 am 07:56 Sunny 23 -5 22 -5.6 96 96 NW 9 15 30.19 1022 10 16 0.00 0.00
8:56 am 08:56 Sunny 28 -2.2 26 -3.3 92 92 WNW 9 15 30.22 1023 10 16 0.00 0.00
9:56 am 09:56 Sunny 34 1.1 30 -1.1 85 85 NW 10 17 30.23 1024 10 16 0.00 0.00
10:56 am 10:56 Sunny 39 3.9 25 -3.9 57 57 NNW 10 17 30.24 1024 10 16 0.00 0.00
11:56 am 11:56 Sunny 43 6.1 24 -4.4 47 47 NNW 16 26 30.23 1024 10 16 0.00 0.00
12:56 pm 12:56 Sunny 46 7.8 23 -5 40 40 N 10 17 30.21 1023 10 16 0.00 0.00
1:56 pm 13:56 Sunny 48 8.9 22 -5.6 35 35 N 7 11 30.19 1022 10 16 0.00 0.00
2:56 pm 14:56 Sunny 48 8.9 21 -6.1 34 34 N 8 13 30.19 1022 10 16 0.00 0.00
3:56 pm 15:56 Sunny 48 8.9 21 -6.1 34 34 Calm 30.20 1023 10 16 0.00 0.00
4:56 pm 16:56 Sunny 42 5.6 22 -5.6 44 44 E 7 11 30.19 1022 10 16 0.00 0.00
5:56 pm 17:56 Clear 36 2.2 21 -6.1 54 54 Calm 30.20 1023 10 16 0.00 0.00
6:56 pm 18:56 Clear 34 1.1 21 -6.1 59 59 SW 5 7 30.22 1023 10 16 0.00 0.00
7:56 pm 19:56 Clear 32 0 20 -6.7 61 61 SSW 8 13 30.22 1024 10 16 0.00 0.00
8:56 pm 20:56 Clear 28 -2.2 20 -6.7 71 71 S 5 7 30.23 1024 10 16 0.00 0.00
9:56 pm 21:56 Clear 27 -2.8 20 -6.7 74 74 S 5 7 30.21 1023 10 16 0.00 0.00
10:56 pm 22:56 Clear 23 -5 17 -8.3 78 78 S 3 6 30.22 1023 10 16 0.00 0.00
11:56 pm 23:56 Clear 26 -3.3 19 -7.2 74 74 S 9 15 30.20 1023 10 16 0.00 0.00

Powered by AerisWeather